Time,TemperatureF,DewpointF,PressureIn,WindDirection,WindDirectionDegrees,WindSpeedMPH,WindSpeedGustMPH,Humidity,HourlyPrecipIn,Conditions,Clouds,dailyrainin,SolarRadiationWatts/m^2,SoftwareType,DateUTC
2013-12-24 00:01:00,33.0,31.0,-100.00,WSW,247,5.0,15.0,92,0.01,,,0.41,0.000000,,2013-12-24 07:01:00,
2013-12-24 00:11:00,33.0,31.0,-100.00,WSW,247,5.0,15.0,92,0.01,,,0.41,0.000000,,2013-12-24 07:11:00,
2013-12-24 00:42:00,33.0,27.0,-100.00,WSW,253,5.0,16.0,78,0.00,,,0.41,0.000000,,2013-12-24 07:42:00,
2013-12-24 00:52:00,33.0,27.0,-100.00,WSW,253,5.0,16.0,78,0.00,,,0.41,0.000000,,2013-12-24 07:52:00,
2013-12-24 01:01:00,33.0,27.0,-100.00,WSW,253,5.0,16.0,78,0.00,,,0.41,0.000000,,2013-12-24 08:01:00,
2013-12-24 01:11:00,33.0,27.0,-100.00,WSW,253,5.0,16.0,78,0.00,,,0.41,0.000000,,2013-12-24 08:11:00,
2013-12-24 01:42:00,32.0,24.0,-100.00,SSW,193,4.0,21.0,71,0.00,,,-99.99,0.000000,,2013-12-24 08:42:00,
2013-12-24 01:52:00,32.0,24.0,-100.00,SSW,193,4.0,21.0,71,0.00,,,-99.99,0.000000,,2013-12-24 08:52:00,
2013-12-24 02:02:00,32.0,24.0,-100.00,SSW,193,4.0,21.0,71,0.00,,,-99.99,0.000000,,2013-12-24 09:02:00,
2013-12-24 02:11:00,32.0,24.0,-100.00,SSW,193,4.0,21.0,71,0.00,,,-99.99,0.000000,,2013-12-24 09:11:00,
2013-12-24 02:43:00,31.0,21.0,-100.00,WSW,237,6.0,11.0,67,0.00,,,0.41,0.000000,,2013-12-24 09:43:00,
2013-12-24 02:53:00,31.0,21.0,-100.00,WSW,237,6.0,11.0,67,0.00,,,0.41,0.000000,,2013-12-24 09:53:00,
2013-12-24 03:03:00,31.0,21.0,-100.00,WSW,237,6.0,11.0,67,0.00,,,0.41,0.000000,,2013-12-24 10:03:00,
2013-12-24 03:12:00,31.0,21.0,-100.00,WSW,237,6.0,11.0,67,0.00,,,0.41,0.000000,,2013-12-24 10:12:00,
2013-12-24 03:43:00,32.0,21.0,-100.00,SSE,167,4.0,15.0,64,0.00,,,0.41,0.000000,,2013-12-24 10:43:00,
2013-12-24 03:52:00,32.0,21.0,-100.00,SSE,167,4.0,15.0,64,0.00,,,0.41,0.000000,,2013-12-24 10:52:00,
2013-12-24 04:02:00,32.0,21.0,-100.00,SSE,167,4.0,15.0,64,0.00,,,0.41,0.000000,,2013-12-24 11:02:00,
2013-12-24 04:12:00,32.0,21.0,-100.00,SSE,167,4.0,15.0,64,0.00,,,0.41,0.000000,,2013-12-24 11:12:00,
2013-12-24 04:42:00,32.0,20.0,-100.00,SSW,197,5.0,16.0,62,0.00,,,0.41,0.000000,,2013-12-24 11:42:00,
2013-12-24 04:52:00,32.0,20.0,-100.00,SSW,197,5.0,16.0,62,0.00,,,0.41,0.000000,,2013-12-24 11:52:00,
2013-12-24 05:02:00,32.0,20.0,-100.00,SSW,197,5.0,16.0,62,0.00,,,0.41,0.000000,,2013-12-24 12:02:00,
2013-12-24 05:11:00,32.0,20.0,-100.00,SSW,197,5.0,16.0,62,0.00,,,0.41,0.000000,,2013-12-24 12:11:00,
2013-12-24 05:42:00,32.0,22.0,-100.00,SSW,212,6.0,16.0,66,0.00,,,0.40,0.000000,,2013-12-24 12:42:00,
2013-12-24 05:52:00,32.0,22.0,-100.00,SSW,212,6.0,16.0,66,0.00,,,0.40,0.000000,,2013-12-24 12:52:00,
2013-12-24 06:02:00,32.0,22.0,-100.00,SSW,212,6.0,16.0,66,0.00,,,0.40,0.000000,,2013-12-24 13:02:00,
2013-12-24 06:11:00,32.0,22.0,-100.00,SSW,212,6.0,16.0,66,0.00,,,0.40,0.000000,,2013-12-24 13:11:00,
2013-12-24 06:42:00,29.0,25.0,-100.00,NW,304,3.0,11.0,86,0.00,,,-99.99,0.000000,,2013-12-24 13:42:00,
2013-12-24 06:52:00,29.0,25.0,-100.00,NW,304,3.0,11.0,86,0.00,,,-99.99,0.000000,,2013-12-24 13:52:00,
2013-12-24 07:02:00,29.0,25.0,-100.00,NW,304,3.0,11.0,86,0.00,,,-99.99,0.000000,,2013-12-24 14:02:00,
2013-12-24 07:11:00,29.0,25.0,-100.00,NW,304,3.0,11.0,86,0.00,,,-99.99,0.000000,,2013-12-24 14:11:00,
2013-12-24 07:42:00,28.0,24.0,-100.00,North,355,3.0,5.0,85,0.00,,,0.40,0.000000,,2013-12-24 14:42:00,
2013-12-24 07:52:00,28.0,24.0,-100.00,North,355,3.0,5.0,85,0.00,,,0.40,0.000000,,2013-12-24 14:52:00,
2013-12-24 08:02:00,28.0,24.0,-100.00,North,355,3.0,5.0,85,0.00,,,0.40,0.000000,,2013-12-24 15:02:00,
2013-12-24 08:11:00,28.0,24.0,-100.00,North,355,3.0,5.0,85,0.00,,,0.40,0.000000,,2013-12-24 15:11:00,
2013-12-24 08:43:00,28.0,25.0,-100.00,North,0,2.0,5.0,87,0.00,,,0.40,0.000000,,2013-12-24 15:43:00,
2013-12-24 08:53:00,28.0,25.0,-100.00,North,0,2.0,5.0,87,0.00,,,0.40,0.000000,,2013-12-24 15:53:00,
2013-12-24 09:03:00,28.0,25.0,-100.00,North,0,2.0,5.0,87,0.00,,,0.40,0.000000,,2013-12-24 16:03:00,
2013-12-24 09:12:00,28.0,25.0,-100.00,North,0,2.0,5.0,87,0.00,,,0.40,0.000000,,2013-12-24 16:12:00,
2013-12-24 09:43:00,29.0,20.0,-100.00,West,274,3.0,6.0,70,0.00,,,0.40,1.000000,,2013-12-24 16:43:00,
2013-12-24 09:53:00,29.0,20.0,-100.00,West,274,3.0,6.0,70,0.00,,,0.40,1.000000,,2013-12-24 16:53:00,
2013-12-24 10:02:00,29.0,20.0,-100.00,West,274,3.0,6.0,70,0.00,,,0.40,1.000000,,2013-12-24 17:02:00,
2013-12-24 10:11:00,29.0,20.0,-100.00,West,274,3.0,6.0,70,0.00,,,0.40,1.000000,,2013-12-24 17:11:00,
2013-12-24 10:42:00,31.0,20.0,-100.00,SW,226,4.0,10.0,62,0.00,,,0.40,29.000000,,2013-12-24 17:42:00,
2013-12-24 10:52:00,31.0,20.0,-100.00,SW,226,4.0,10.0,62,0.00,,,0.40,29.000000,,2013-12-24 17:52:00,
2013-12-24 11:01:00,31.0,20.0,-100.00,SW,226,4.0,10.0,62,0.00,,,0.40,29.000000,,2013-12-24 18:01:00,
2013-12-24 11:12:00,31.0,20.0,-100.00,SW,226,4.0,10.0,62,0.00,,,0.40,29.000000,,2013-12-24 18:12:00,
2013-12-24 11:42:00,34.0,19.0,-100.00,SW,214,4.0,11.0,54,0.00,,,0.40,145.000000,,2013-12-24 18:42:00,
2013-12-24 11:52:00,34.0,19.0,-100.00,SW,214,4.0,11.0,54,0.00,,,0.40,145.000000,,2013-12-24 18:52:00,
2013-12-24 12:01:00,34.0,19.0,-100.00,SW,214,4.0,11.0,54,0.00,,,0.40,145.000000,,2013-12-24 19:01:00,
2013-12-24 12:12:00,34.0,19.0,-100.00,SW,214,4.0,11.0,54,0.00,,,0.40,145.000000,,2013-12-24 19:12:00,
2013-12-24 12:42:00,35.0,20.0,-100.00,SSE,158,5.0,12.0,55,0.00,,,0.40,207.000000,,2013-12-24 19:42:00,
2013-12-24 12:52:00,35.0,20.0,-100.00,SSE,158,5.0,12.0,55,0.00,,,0.40,207.000000,,2013-12-24 19:52:00,
2013-12-24 13:01:00,35.0,20.0,-100.00,SSE,158,5.0,12.0,55,0.00,,,0.40,207.000000,,2013-12-24 20:01:00,
2013-12-24 13:12:00,35.0,20.0,-100.00,SSE,158,5.0,12.0,55,0.00,,,0.40,207.000000,,2013-12-24 20:12:00,
2013-12-24 13:42:00,36.0,20.0,-100.00,South,181,4.0,13.0,52,0.00,,,0.40,378.000000,,2013-12-24 20:42:00,
2013-12-24 13:52:00,36.0,20.0,-100.00,South,181,4.0,13.0,52,0.00,,,0.40,378.000000,,2013-12-24 20:52:00,
2013-12-24 14:02:00,36.0,20.0,-100.00,South,181,4.0,13.0,52,0.00,,,0.40,378.000000,,2013-12-24 21:02:00,
2013-12-24 14:11:00,36.0,20.0,-100.00,South,181,4.0,13.0,52,0.00,,,0.40,378.000000,,2013-12-24 21:11:00,
2013-12-24 14:43:00,36.0,21.0,-100.00,South,189,4.0,12.0,53,0.00,,,0.37,250.000000,,2013-12-24 21:43:00,
2013-12-24 14:53:00,36.0,21.0,-100.00,South,189,4.0,12.0,53,0.00,,,0.37,250.000000,,2013-12-24 21:53:00,
2013-12-24 15:02:00,36.0,21.0,-100.00,South,189,4.0,12.0,53,0.00,,,0.37,250.000000,,2013-12-24 22:02:00,
2013-12-24 15:12:00,36.0,21.0,-100.00,South,189,4.0,12.0,53,0.00,,,0.37,250.000000,,2013-12-24 22:12:00,
2013-12-24 15:43:00,37.0,19.0,-100.00,South,170,6.0,12.0,47,0.00,,,0.36,364.000000,,2013-12-24 22:43:00,
2013-12-24 15:53:00,37.0,19.0,-100.00,South,170,6.0,12.0,47,0.00,,,0.36,364.000000,,2013-12-24 22:53:00,
2013-12-24 16:02:00,37.0,19.0,-100.00,South,170,6.0,12.0,47,0.00,,,0.36,364.000000,,2013-12-24 23:02:00,
2013-12-24 16:12:00,37.0,19.0,-100.00,South,170,6.0,12.0,47,0.00,,,0.36,364.000000,,2013-12-24 23:12:00,
2013-12-24 16:42:00,35.0,18.0,-100.00,SSE,157,6.0,12.0,50,0.00,,,0.36,196.000000,,2013-12-24 23:42:00,
2013-12-24 16:53:00,35.0,18.0,-100.00,SSE,157,6.0,12.0,50,0.00,,,0.36,196.000000,,2013-12-24 23:53:00,
2013-12-24 17:02:00,35.0,18.0,-100.00,SSE,157,6.0,12.0,50,0.00,,,0.36,196.000000,,2013-12-25 00:02:00,
2013-12-24 17:11:00,35.0,18.0,-100.00,SSE,157,6.0,12.0,50,0.00,,,0.36,196.000000,,2013-12-25 00:11:00,
2013-12-24 17:42:00,33.0,16.0,-100.00,SW,215,3.0,11.0,50,0.00,,,0.33,109.000000,,2013-12-25 00:42:00,
2013-12-24 17:52:00,33.0,16.0,-100.00,SW,215,3.0,11.0,50,0.00,,,0.33,109.000000,,2013-12-25 00:52:00,
2013-12-24 18:02:00,33.0,16.0,-100.00,SW,215,3.0,11.0,50,0.00,,,0.33,109.000000,,2013-12-25 01:02:00,
2013-12-24 18:11:00,33.0,16.0,-100.00,SW,215,3.0,11.0,50,0.00,,,0.33,109.000000,,2013-12-25 01:11:00,
2013-12-24 18:42:00,31.0,19.0,-100.00,West,262,4.0,9.0,60,0.00,,,0.32,16.000000,,2013-12-25 01:42:00,
2013-12-24 18:52:00,31.0,19.0,-100.00,West,262,4.0,9.0,60,0.00,,,0.32,16.000000,,2013-12-25 01:52:00,
2013-12-24 19:01:00,31.0,19.0,-100.00,West,262,4.0,9.0,60,0.00,,,0.32,16.000000,,2013-12-25 02:01:00,
2013-12-24 19:11:00,31.0,19.0,-100.00,West,262,4.0,9.0,60,0.00,,,0.32,16.000000,,2013-12-25 02:11:00,
2013-12-24 19:42:00,29.0,20.0,-100.00,NNW,335,3.0,7.0,70,0.00,,,0.27,0.000000,,2013-12-25 02:42:00,
2013-12-24 19:53:00,29.0,20.0,-100.00,NNW,335,3.0,7.0,70,0.00,,,0.27,0.000000,,2013-12-25 02:53:00,
2013-12-24 20:02:00,29.0,20.0,-100.00,NNW,335,3.0,7.0,70,0.00,,,0.27,0.000000,,2013-12-25 03:02:00,
2013-12-24 20:11:00,29.0,20.0,-100.00,NNW,335,3.0,7.0,70,0.00,,,0.27,0.000000,,2013-12-25 03:11:00,
2013-12-24 20:43:00,28.0,19.0,-100.00,WNW,288,4.0,10.0,69,0.00,,,0.15,0.000000,,2013-12-25 03:43:00,
2013-12-24 20:53:00,28.0,19.0,-100.00,WNW,288,4.0,10.0,69,0.00,,,0.15,0.000000,,2013-12-25 03:53:00,
2013-12-24 21:03:00,28.0,19.0,-100.00,WNW,288,4.0,10.0,69,0.00,,,0.15,0.000000,,2013-12-25 04:03:00,
2013-12-24 21:12:00,28.0,19.0,-100.00,WNW,288,4.0,10.0,69,0.00,,,0.15,0.000000,,2013-12-25 04:12:00,
2013-12-24 21:43:00,26.0,20.0,-100.00,NW,324,2.0,6.0,78,0.00,,,0.02,0.000000,,2013-12-25 04:43:00,
2013-12-24 21:53:00,26.0,20.0,-100.00,NW,324,2.0,6.0,78,0.00,,,0.02,0.000000,,2013-12-25 04:53:00,
2013-12-24 22:02:00,26.0,20.0,-100.00,NW,324,2.0,6.0,78,0.00,,,0.02,0.000000,,2013-12-25 05:02:00,
2013-12-24 22:12:00,26.0,20.0,-100.00,NW,324,2.0,6.0,78,0.00,,,0.02,0.000000,,2013-12-25 05:12:00,
2013-12-24 22:43:00,26.0,19.0,-100.00,NW,308,2.0,6.0,75,0.00,,,-99.99,0.000000,,2013-12-25 05:43:00,
2013-12-24 22:53:00,26.0,19.0,-100.00,NW,308,2.0,6.0,75,0.00,,,-99.99,0.000000,,2013-12-25 05:53:00,
2013-12-24 23:02:00,26.0,19.0,-100.00,NW,308,2.0,6.0,75,0.00,,,-99.99,0.000000,,2013-12-25 06:02:00,
2013-12-24 23:11:00,26.0,19.0,-100.00,NW,308,2.0,6.0,75,0.00,,,-99.99,0.000000,,2013-12-25 06:11:00,
2013-12-24 23:42:00,25.0,16.0,-100.00,WSW,252,5.0,11.0,69,0.00,,,0.00,0.000000,,2013-12-25 06:42:00,
2013-12-24 23:52:00,25.0,16.0,-100.00,WSW,252,5.0,11.0,69,0.00,,,0.00,0.000000,,2013-12-25 06:52:00,